Dewpoint
61 62 61 61 61 61 61 60 61 63 59 61 63 60 60 59 63 63 63 62 61 61 62 60 60 60 59 59 61 60 60 60 59 57 56 57 57 57 59 59 61 62 61 60 59 57 56 54 53 61 60 59 60 60 63 63 63 62 60 59 53 57 65
63 60 60 60 61 60 60 61 61 62 63 62 60 62 63 58 61 60 61 60 60 59 56 58 59 56 60 59 59 59 59 59 59 58 58 57 56 55 55 57 54 54 51 53 55 57 55 52 50 46 48 54 58 58 63 61 60 58 55 57 55 53 55
60 58 58 60 61 62 61 62 60 61 62 63 62 61 61 57 61 62 58 56 58 57 59 59 59 60 58 59 59 59 58 58 58 58 56 57 57 57 55 56 56 55 55 54 55 52 51 50 49 48 49 48 51 56 60 58 56 54 53 53 55 50 50
59 58 59 59 60 61 60 59 60 61 60 61 62 61 61 57 60 59 60 59 58 64 61 59 59 61 57 58 58 59 58 58 58 57 57 56 58 57 55 55 54 54 55 53 52 53 54 53 52 51 50 48 45 44 49 49 52 46 47 52 51 49 49
59 57 58 57 57 57 58 59 61 61 61 60 62 62 61 58 60 60 61 60 55 57 56 58 60 55 56 56 58 62 59 58 58 59 58 57 57 57 56 56 55 54 52 52 52 55 54 55 54 50 49 48 46 45 47 51 51 49 47 46 46 46 46
60 59 58 58 58 59 59 59 59 60 59 59 60 59 60 59 59 63 59 59 60 59 58 56 55 56 56 57 55 55 57 57 56 56 56 56 56 56 56 56 56 53 52 53 55 53 53 54 53 52 48 47 48 49 48 48 47 46 46 44 42 43 46
61 60 60 57 58 60 59 59 58 59 59 59 59 59 57 56 58 58 58 57 58 58 57 57 57 57 55 50 53 54 54 56 57 57 56 56 55 55 56 56 56 55 55 54 53 53 54 53 53 51 51 51 50 49 49 48 45 48 48 45 44 43 45
60 61 62 60 59 58 58 58 59 59 60 59 59 59 58 58 57 57 56 57 55 56 57 56 54 58 54 55 53 56 55 55 55 56 56 55 54 52 54 54 55 54 54 52 52 54 53 54 52 52 51 48 48 49 48 45 45 46 42 43 41 40 45
62 60 61 61 61 60 59 58 60 60 60 60 59 58 58 56 57 55 55 53 55 55 56 56 55 54 54 55 55 56 54 54 55 53 52 52 53 53 53 53 53 52 53 53 53 53 55 52 51 51 51 50 47 45 47 46 46 42 42 42 42 43 42
61 59 60 61 59 60 60 60 60 58 59 59 57 58 58 58 56 56 55 54 57 56 56 55 53 53 55 56 54 54 54 55 54 52 54 53 53 55 55 54 54 54 54 53 55 55 54 52 51 50 50 49 49 47 45 45 46 47 44 43 43 43 44
58 56 58 59 59 60 60 61 59 59 58 56 56 56 57 56 57 55 55 55 57 57 55 55 53 54 55 54 54 54 53 54 54 54 53 51 52 53 53 52 52 52 52 52 52 53 53 53 53 50 49 48 49 46 45 43 43 46 46 46 44 43 43
57 57 57 59 59 58 58 59 58 59 58 57 56 56 56 54 57 57 56 54 55 54 56 56 55 55 53 54 54 54 54 52 51 51 52 52 52 53 52 52 51 51 51 51 51 51 52 52 52 49 49 50 50 51 48 46 42 44 47 46 46 44 42
58 55 55 58 58 57 56 57 58 58 58 56 56 55 54 53 53 54 55 54 53 53 53 54 55 54 57 55 54 54 52 52 49 51 51 51 50 50 50 49 50 51 51 51 51 52 50 49 49 47 47 47 48 49 49 47 44 42 46 45 45 45 45
58 55 55 57 58 57 57 57 57 57 57 56 55 54 54 52 50 53 51 53 50 53 55 54 56 57 56 53 53 52 52 51 50 50 51 51 50 50 51 49 46 49 50 49 49 48 49 47 48 50 49 47 47 48 47 46 43 42 45 49 48 45 45
56 54 56 58 58 57 58 59 59 57 56 56 54 53 52 52 53 51 51 49 53 50 51 53 54 54 53 52 52 49 52 51 51 50 51 49 50 48 51 48 45 48 49 46 49 44 43 45 44 45 45 46 44 45 48 46 44 43 42 44 47 44 42
59 59 58 61 58 59 57 58 58 58 56 57 55 53 52 52 52 50 50 52 49 51 50 53 53 53 54 52 50 51 52 51 50 50 49 49 44 48 48 48 47 46 48 47 48 47 47 46 46 45 44 44 45 46 44 45 45 44 43 44 44 43 44
60 58 56 57 57 58 57 59 57 57 56 57 54 55 53 49 51 53 51 50 51 50 52 53 54 53 51 50 49 49 50 50 50 50 47 44 43 44 46 47 47 47 48 48 48 47 47 47 48 47 45 46 45 44 45 45 45 45 45 44 44 43 43
59 60 59 60 58 57 56 56 57 54 55 56 54 54 53 51 50 50 53 49 48 49 50 50 50 51 52 51 50 51 50 49 50 49 49 46 45 46 47 46 47 47 48 48 49 48 47 48 44 46 45 45 45 46 46 46 45 45 44 44 44 44 44
58 58 59 59 59 60 58 57 56 56 54 55 56 54 52 49 48 48 47 47 47 47 47 49 50 50 49 49 51 51 51 50 49 48 47 48 45 47 47 45 45 45 45 48 48 48 47 46 46 47 46 45 45 45 46 45 45 45 45 44 44 44 44
58 57 58 58 58 59 60 59 57 54 56 56 55 56 53 53 53 49 48 49 49 50 47 48 51 51 49 49 50 50 51 50 49 49 48 47 47 47 46 46 48 46 45 46 46 46 46 46 46 45 45 45 45 46 45 45 44 44 44 43 43 43 43
59 59 58 57 57 58 59 59 59 58 57 57 57 54 53 52 54 51 49 48 48 50 50 49 51 50 48 51 51 49 48 48 49 49 49 47 48 47 46 47 48 45 45 45 45 44 45 44 45 45 45 44 44 44 44 44 43 43 42 43 42 42 42
58 56 55 55 55 55 57 58 59 58 58 56 56 55 56 54 51 47 49 54 47 48 50 51 49 48 50 47 50 49 49 49 48 47 47 47 47 47 46 47 48 44 46 47 45 44 44 43 45 44 44 43 41 42 42 42 42 42 42 41 41 42 41
58 56 55 54 53 54 55 57 58 57 58 58 55 55 54 53 50 48 47 46 50 51 51 52 49 47 49 46 48 45 47 48 48 48 48 48 47 46 45 47 48 44 45 45 44 44 44 43 42 43 42 42 42 41 40 40 40 40 40 40 39 40 40
57 57 56 55 55 55 53 54 55 56 56 56 55 54 53 51 53 53 48 49 49 52 52 50 43 39 39 44 46 47 48 48 48 47 46 47 47 46 47 45 46 44 44 44 43 46 44 44 43 44 45 44 43 42 41 41 40 40 39 39 40 40 40
57 57 56 55 55 53 52 50 52 54 55 56 55 54 53 51 52 53 53 52 51 50 51 45 38 39 39 39 45 48 49 47 47 46 46 46 45 47 48 47 45 45 45 43 43 45 45 45 43 42 42 42 42 42 42 41 41 40 41 39 39 39 39
57 57 57 57 57 55 55 54 54 56 57 56 56 54 54 54 54 53 51 50 50 50 46 40 38 38 38 37 39 44 45 46 46 46 46 46 46 47 47 45 44 46 44 44 43 42 42 44 46 44 43 43 43 41 38 38 40 42 42 41 42 40 40
56 57 57 58 58 57 56 56 56 56 57 56 55 54 54 54 54 52 50 49 50 49 45 41 38 38 38 37 37 39 45 46 45 45 46 46 46 46 45 44 44 44 44 43 44 43 42 44 44 44 44 44 43 44 44 39 38 39 41 42 41 41 42
56 57 57 57 57 57 57 57 56 56 56 56 55 54 54 53 52 51 50 50 50 50 45 39 38 37 37 37 36 38 44 44 44 45 47 47 47 46 44 45 43 43 44 43 43 45 45 44 43 41 39 40 42 43 46 44 42 40 41 41 41 41 43
56 56 56 57 57 57 57 57 56 56 56 56 55 55 55 54 53 53 53 52 51 50 46 38 37 37 37 36 37 41 42 42 44 45 45 47 45 44 43 43 43 44 43 42 40 38 40 42 41 39 39 41 42 45 45 49 45 43 45 44 43 42 40
55 55 55 56 55 56 56 56 56 56 54 54 54 53 53 53 53 53 52 52 51 48 43 38 37 37 36 36 38 40 42 41 43 44 44 45 44 44 44 43 43 45 44 39 37 34 34 39 40 38 39 41 43 43 43 48 41 39 38 38 38 38 38
55 54 55 55 55 55 55 56 56 55 54 54 53 53 53 53 54 54 53 52 51 47 44 40 37 37 36 36 40 41 41 42 44 44 44 45 44 44 43 45 43 43 43 37 35 34 33 38 40 40 40 40 40 40 43 40 41 48 39 38 38 38 37
53 54 54 55 54 54 54 54 55 55 54 54 53 53 53 53 53 54 54 52 53 49 46 41 37 36 36 36 39 42 42 42 43 44 43 44 44 43 43 44 46 44 43 38 34 34 33 39 39 40 40 39 37 38 40 38 37 34 34 34 36 42 43
53 55 54 54 55 55 55 55 55 54 54 53 53 54 53 53 52 53 53 53 52 50 47 41 39 37 37 36 38 40 40 40 42 43 44 41 43 42 43 43 46 39 37 34 34 34 34 33 37 38 39 38 36 40 37 35 36 35 33 35 36 38 41
55 55 55 55 55 55 56 56 55 55 54 53 54 53 53 52 52 52 52 52 52 51 48 43 40 37 37 36 36 39 40 42 43 43 43 41 40 43 42 43 44 38 34 34 34 35 35 34 36 36 37 35 39 38 35 34 33 32 33 36 39 40 41
58 56 54 54 54 56 56 56 56 56 54 54 54 53 53 53 52 52 52 52 51 52 50 46 40 37 36 36 36 36 40 41 43 45 44 43 44 41 43 43 41 37 34 34 34 33 34 35 34 35 35 34 34 34 36 35 32 31 33 36 37 38 39
50 54 55 57 54 54 56 54 54 54 54 53 53 53 52 52 51 51 51 52 52 51 50 47 40 39 36 36 36 36 37 41 35 44 44 43 44 43 43 41 39 36 33 33 33 33 34 34 34 33 33 33 34 33 35 31 30 32 35 37 39 38 39
46 50 52 55 56 53 55 54 54 52 53 52 52 51 51 51 51 50 50 50 50 51 52 49 41 40 38 36 36 35 35 35 35 41 42 42 42 41 40 38 36 33 33 33 34 33 33 34 33 32 33 34 34 34 33 31 31 35 37 37 37 38 38